• In Österreich
  • Länderverzeichnis
  • Für 7 Tage
  • Wassertemperatur
  • Satellitenkarten
  • Wetterkarte
  • News
  • Widgets
  • user-avatar
    Anmelden

    Stündliche Wetter Ząbki

    Heute, 20 September, Donnerstag

    Zeit Temperatur Niederschläge Wind Luftdruck Luftfeuchtigkeit
    00:00 +19°C° 0 mm 2 m/S 756 mmHg 68%
    01:00 +19°C° 0 mm 2 m/S 756 mmHg 70%
    02:00 +18°C° 0 mm 2 m/S 756 mmHg 72%
    03:00 +18°C° 0 mm 2 m/S 756 mmHg 74%
    04:00 +18°C° 0 mm 2 m/S 756 mmHg 76%
    05:00 +19°C° 0 mm 2 m/S 756 mmHg 74%
    06:00 +19°C° 0 mm 2 m/S 756 mmHg 72%
    07:00 +20°C° 0 mm 2 m/S 757 mmHg 70%
    08:00 +23°C° 0 mm 2 m/S 757 mmHg 64%
    09:00 +25°C° 0 mm 2 m/S 757 mmHg 58%
    10:00 +27°C° 0 mm 2 m/S 757 mmHg 51%
    11:00 +28°C° 0 mm 2 m/S 756 mmHg 48%
    12:00 +29°C° 0 mm 3 m/S 756 mmHg 45%
    13:00 +30°C° 0 mm 3 m/S 756 mmHg 42%
    14:00 +30°C° 0 mm 2 m/S 756 mmHg 43%
    15:00 +30°C° 0 mm 2 m/S 756 mmHg 44%
    16:00 +29°C° 0 mm 2 m/S 755 mmHg 45%
    17:00 +27°C° 0 mm 2 m/S 755 mmHg 50%
    18:00 +26°C° 0 mm 2 m/S 755 mmHg 54%
    19:00 +24°C° 0 mm 2 m/S 755 mmHg 59%
    20:00 +23°C° 0 mm 2 m/S 755 mmHg 60%
    21:00 +21°C° 0 mm 2 m/S 755 mmHg 61%
    22:00 +21°C° 0 mm 2 m/S 755 mmHg 63%
    23:00 +20°C° 0 mm 2 m/S 755 mmHg 63%

    Morgen, 21 September, Freitag

    Zeit Temperatur Niederschläge Wind Luftdruck Luftfeuchtigkeit
    00:00 +20°C° 0 mm 3 m/S 755 mmHg 63%
    01:00 +19°C° 0 mm 3 m/S 755 mmHg 63%
    02:00 +19°C° 0 mm 3 m/S 755 mmHg 64%
    03:00 +18°C° 0 mm 3 m/S 755 mmHg 64%
    04:00 +18°C° 0 mm 3 m/S 755 mmHg 65%
    05:00 +18°C° 0 mm 3 m/S 755 mmHg 64%
    06:00 +19°C° 0 mm 3 m/S 755 mmHg 63%
    07:00 +19°C° 0 mm 4 m/S 754 mmHg 62%
    08:00 +21°C° 0 mm 4 m/S 754 mmHg 57%
    09:00 +23°C° 0 mm 5 m/S 754 mmHg 51%
    10:00 +26°C° 0 mm 5 m/S 753 mmHg 46%
    11:00 +27°C° 0 mm 5 m/S 753 mmHg 43%
    12:00 +28°C° 0 mm 6 m/S 752 mmHg 40%
    13:00 +29°C° 0 mm 6 m/S 751 mmHg 37%
    14:00 +29°C° 0 mm 6 m/S 751 mmHg 39%
    15:00 +28°C° 0 mm 5 m/S 750 mmHg 41%
    16:00 +28°C° 0 mm 5 m/S 750 mmHg 42%
    17:00 +27°C° 0 mm 5 m/S 750 mmHg 46%
    18:00 +25°C° 0 mm 5 m/S 749 mmHg 49%
    19:00 +23°C° 0 mm 5 m/S 749 mmHg 53%
    20:00 +22°C° 0 mm 5 m/S 749 mmHg 53%
    21:00 +22°C° 0 mm 5 m/S 749 mmHg 53%
    22:00 +22°C° 0 mm 6 m/S 750 mmHg 53%
    23:00 +20°C° 0.1 mm 6 m/S 750 mmHg 59%

    übermorgen, 22 September, Samstag

    Zeit Temperatur Niederschläge Wind Luftdruck Luftfeuchtigkeit
    00:00 +17°C° 0.1 mm 6 m/S 751 mmHg 65%
    01:00 +15°C° 0.1 mm 6 m/S 751 mmHg 71%
    02:00 +15°C° 0.1 mm 5 m/S 752 mmHg 71%
    03:00 +14°C° 0.1 mm 4 m/S 753 mmHg 71%
    04:00 +13°C° 0.1 mm 3 m/S 753 mmHg 71%
    05:00 +14°C° 0 mm 4 m/S 754 mmHg 69%
    06:00 +14°C° 0 mm 4 m/S 754 mmHg 66%
    07:00 +14°C° 0 mm 4 m/S 755 mmHg 64%
    08:00 +15°C° 0 mm 5 m/S 755 mmHg 58%
    09:00 +15°C° 0 mm 5 m/S 755 mmHg 52%
    10:00 +16°C° 0 mm 6 m/S 755 mmHg 46%
    11:00 +16°C° 0 mm 6 m/S 755 mmHg 44%
    12:00 +17°C° 0 mm 6 m/S 755 mmHg 42%
    13:00 +17°C° 0 mm 6 m/S 755 mmHg 41%
    14:00 +17°C° 0 mm 6 m/S 754 mmHg 42%
    15:00 +17°C° 0 mm 6 m/S 754 mmHg 42%
    16:00 +17°C° 0 mm 5 m/S 754 mmHg 43%
    17:00 +16°C° 0 mm 5 m/S 754 mmHg 45%
    18:00 +15°C° 0 mm 4 m/S 754 mmHg 48%
    19:00 +14°C° 0 mm 3 m/S 754 mmHg 50%
    20:00 +14°C° 0 mm 3 m/S 755 mmHg 50%
    21:00 +14°C° 0 mm 3 m/S 755 mmHg 49%
    22:00 +14°C° 0 mm 3 m/S 755 mmHg 49%
    23:00 +13°C° 0 mm 3 m/S 755 mmHg 52%

    23 September, Sonntag

    Zeit Temperatur Niederschläge Wind Luftdruck Luftfeuchtigkeit
    00:00 +12°C° 0 mm 3 m/S 755 mmHg 55%
    01:00 +11°C° 0 mm 4 m/S 755 mmHg 58%
    02:00 +11°C° 0 mm 4 m/S 755 mmHg 60%
    03:00 +10°C° 0 mm 4 m/S 755 mmHg 62%
    04:00 +10°C° 0 mm 4 m/S 755 mmHg 64%
    05:00 +10°C° 0 mm 4 m/S 755 mmHg 63%
    06:00 +10°C° 0 mm 5 m/S 755 mmHg 62%
    07:00 +10°C° 0 mm 5 m/S 755 mmHg 61%
    08:00 +13°C° 0 mm 6 m/S 755 mmHg 56%
    09:00 +14°C° 0 mm 6 m/S 755 mmHg 50%
    10:00 +15°C° 0 mm 7 m/S 755 mmHg 45%
    11:00 +16°C° 0 mm 6 m/S 755 mmHg 43%
    12:00 +17°C° 0 mm 6 m/S 754 mmHg 40%
    13:00 +17°C° 0 mm 6 m/S 754 mmHg 38%
    14:00 +17°C° 0 mm 5 m/S 753 mmHg 39%
    15:00 +17°C° 0 mm 5 m/S 753 mmHg 40%
    16:00 +18°C° 0 mm 4 m/S 752 mmHg 42%
    17:00 +17°C° 0 mm 4 m/S 751 mmHg 44%
    18:00 +16°C° 0 mm 3 m/S 751 mmHg 47%
    19:00 +14°C° 0 mm 3 m/S 750 mmHg 49%
    20:00 +13°C° 1.4 mm 3 m/S 749 mmHg 59%
    21:00 +13°C° 1.4 mm 4 m/S 748 mmHg 69%
    22:00 +12°C° 1.4 mm 5 m/S 747 mmHg 79%
    23:00 +12°C° 2.9 mm 5 m/S 745 mmHg 82%

    24 September, Montag

    Zeit Temperatur Niederschläge Wind Luftdruck Luftfeuchtigkeit
    00:00 +11°C° 2.9 mm 6 m/S 743 mmHg 85%
    01:00 +11°C° 2.9 mm 6 m/S 742 mmHg 88%
    02:00 +11°C° 2.7 mm 6 m/S 740 mmHg 88%
    03:00 +13°C° 2.7 mm 6 m/S 739 mmHg 88%
    04:00 +13°C° 2.7 mm 6 m/S 737 mmHg 87%
    05:00 +14°C° 3 mm 6 m/S 737 mmHg 86%
    06:00 +15°C° 3 mm 7 m/S 736 mmHg 85%
    07:00 +15°C° 3 mm 7 m/S 736 mmHg 84%
    08:00 +15°C° 0.2 mm 7 m/S 735 mmHg 81%
    09:00 +15°C° 0.2 mm 8 m/S 735 mmHg 78%
    10:00 +13°C° 0.2 mm 8 m/S 734 mmHg 74%
    11:00 +13°C° 0.4 mm 8 m/S 734 mmHg 76%
    12:00 +13°C° 0.4 mm 8 m/S 734 mmHg 77%
    13:00 +13°C° 0.4 mm 9 m/S 733 mmHg 78%
    14:00 +12°C° 0.7 mm 10 m/S 734 mmHg 79%
    15:00 +10°C° 0.7 mm 12 m/S 734 mmHg 80%
    16:00 +9°C° 0.7 mm 14 m/S 735 mmHg 81%
    17:00 +9°C° 0.4 mm 14 m/S 736 mmHg 80%
    18:00 +9°C° 0.4 mm 13 m/S 738 mmHg 78%
    19:00 +9°C° 0.4 mm 13 m/S 739 mmHg 77%
    20:00 +9°C° 0.3 mm 13 m/S 740 mmHg 76%
    21:00 +9°C° 0.3 mm 13 m/S 742 mmHg 76%
    22:00 +9°C° 0.3 mm 12 m/S 744 mmHg 76%
    23:00 +8°C° 0.2 mm 12 m/S 745 mmHg 75%

    25 September, Dienstag

    Zeit Temperatur Niederschläge Wind Luftdruck Luftfeuchtigkeit
    00:00 +8°C° 0.2 mm 11 m/S 747 mmHg 74%
    01:00 +7°C° 0.2 mm 11 m/S 748 mmHg 73%
    02:00 +7°C° 0 mm 10 m/S 749 mmHg 72%
    03:00 +6°C° 0 mm 9 m/S 750 mmHg 72%
    04:00 +6°C° 0 mm 9 m/S 750 mmHg 71%
    05:00 +6°C° 0 mm 9 m/S 751 mmHg 69%
    06:00 +6°C° 0 mm 8 m/S 752 mmHg 68%
    07:00 +6°C° 0 mm 8 m/S 753 mmHg 66%
    08:00 +7°C° 0.1 mm 9 m/S 753 mmHg 61%
    09:00 +8°C° 0.1 mm 9 m/S 754 mmHg 57%
    10:00 +10°C° 0.1 mm 9 m/S 754 mmHg 52%
    11:00 +11°C° 0.2 mm 9 m/S 755 mmHg 50%
    12:00 +11°C° 0.2 mm 9 m/S 755 mmHg 49%
    13:00 +11°C° 0.2 mm 9 m/S 756 mmHg 47%
    14:00 +11°C° 0.1 mm 9 m/S 756 mmHg 47%
    15:00 +10°C° 0.1 mm 8 m/S 756 mmHg 47%
    16:00 +10°C° 0.1 mm 7 m/S 757 mmHg 47%
    17:00 +9°C° 0 mm 6 m/S 757 mmHg 50%
    18:00 +8°C° 0 mm 6 m/S 758 mmHg 53%
    19:00 +7°C° 0 mm 5 m/S 759 mmHg 56%
    20:00 +6°C° 0 mm 5 m/S 759 mmHg 57%
    21:00 +6°C° 0 mm 4 m/S 760 mmHg 58%
    22:00 +6°C° 0 mm 4 m/S 760 mmHg 59%
    23:00 +5°C° 0 mm 4 m/S 760 mmHg 60%
    Mehr zeigen